This is the latest recevied weather packets stored in our database for station/object N3FKR. If no packets are shown the sender has not sent any weather packets the latest 10 day(s).
| Time | Temp. | Humidity | Pressure | Rain* | Wind** | Luminosity | Snow |
|---|---|---|---|---|---|---|---|
| 1788135971 | 77° F | 85% | 766 mmHg | 0 in | - | 0 W/m² | - |
| 1788135667 | 77° F | 85% | 766.2 mmHg | 0 in | - | 0 W/m² | - |
| 1788135362 | 77° F | 85% | 766.2 mmHg | 0 in | - | 0 W/m² | - |
| 1788135058 | 77° F | 85% | 766 mmHg | 0 in | - | 0 W/m² | - |
| 1788134754 | 77° F | 85% | 766.1 mmHg | 0 in | - | 0 W/m² | - |
| 1788134454 | 77° F | 85% | 766 mmHg | 0 in | - | 0 W/m² | - |
| 1788134152 | 78° F | 85% | 766 mmHg | 0 in | - | 0 W/m² | - |
| 1788133848 | 78° F | 85% | 766 mmHg | 0 in | - | 0 W/m² | - |
| 1788133542 | 78° F | 85% | 766 mmHg | 0 in | - | 0 W/m² | - |
| 1788133238 | 78° F | 84% | 766.1 mmHg | 0 in | - | 0 W/m² | - |
| 1788132933 | 78° F | 83% | 766 mmHg | 0 in | - | 1 W/m² | - |
| 1788132629 | 78° F | 82% | 766.2 mmHg | 0 in | - | 1 W/m² | - |
| 1788132325 | 79° F | 82% | 766.2 mmHg | 0 in | - | 2 W/m² | - |
| 1788132021 | 79° F | 82% | 766 mmHg | 0 in | - | 3 W/m² | - |
| 1788131717 | 79° F | 82% | 766.2 mmHg | 0 in | - | 6 W/m² | - |
| 1788131415 | 79° F | 82% | 766.3 mmHg | 0 in | - | 11 W/m² | - |
| 1788131111 | 79° F | 82% | 766 mmHg | 0 in | - | 18 W/m² | - |
| 1788130811 | 79° F | 81% | 766.3 mmHg | 0 in | - | 25 W/m² | - |
| 1788130506 | 79° F | 82% | 766.1 mmHg | 0 in | - | 29 W/m² | - |
| 1788130206 | 80° F | 81% | 766 mmHg | 0 in | - | 31 W/m² | - |
| 1788129904 | 80° F | 80% | 766 mmHg | 0 in | - | 39 W/m² | - |
| 1788129601 | 80° F | 80% | 766 mmHg | 0 in | - | 46 W/m² | - |
| 1788129298 | 80° F | 81% | 766 mmHg | 0 in | - | 50 W/m² | - |
| 1788128997 | 80° F | 79% | 766.1 mmHg | 0 in | - | 58 W/m² | - |
| 1788128692 | 80° F | 79% | 766 mmHg | 0 in | - | 75 W/m² | - |
* Rain latest hour (hover to see other rain measurements)
** Current wind speed in m/s (hover to see current wind gust speed)